Regional Weather Roundup
Issued by NWS

Home | Current Version | Previous Version | Text Only | Print | Product List | Glossary Off
Versions: 1 2 3 4 5 6 7 8 9 10 11 12 13 14 15 16 17 18 19 20 21 22 23 24 25 26 27 28 29 30 31 32 33 34 35 36 37 38 39 40 41 42 43 44 45 46 47 48 49 50

734
ASUS43 KDTX 250910
RWRMI
MICHIGAN HOURLY REGIONAL WEATHER ROUNDUP
NATIONAL WEATHER SERVICE DETROIT/PONTIAC MI
ISSUED BY NATIONAL WEATHER SERVICE GRAND RAPIDS MI
500 AM EDT TUE JUL 25 2017

NOTE: "FAIR" INDICATES FEW OR NO CLOUDS BELOW 12,000 FEET WITH NO
SIGNIFICANT WEATHER AND/OR OBSTRUCTION TO VISIBILITY.

MIZ047>049-052>055-059>063-066>070-074>076-081>083-251000-
SOUTHEAST LOWER MICHIGAN

CITY           SKY/WX    TMP DP  RH WIND       PRES   REMARKS
ADRIAN         CLEAR     52  51  97 NW3       30.18R
ALMA           FOG       50  49  97 W7        30.18R VSB 3/4
ANN ARBOR      CLEAR     47  47 100 CALM      30.16R FOG
BAD AXE        CLEAR     48  47  99 CALM      30.16S
DETROIT CITY   CLEAR     58  51  78 N6        30.15R
DETROIT        PTCLDY    57  51  80 NE3       30.16R
FLINT          CLEAR     51  50  96 CALM      30.17R
GROSSE ILE     CLEAR     57  52  83 NW5       30.15R
HILLSDALE      CLEAR     50  48  93 CALM      30.17S
HOWELL         CLEAR     52  51  96 W5        30.17R

CITY           SKY/WX    TMP DP  RH WIND       PRES   REMARKS
JACKSON        CLEAR     52  50  93 CALM      30.18R
LANSING        CLEAR     54  51  90 CALM      30.18R
MASON          CLEAR     50  50  99 CALM      30.18R FOG
MONROE         CLEAR     50  49  97 CALM      30.15R
MT. CLEMENS    CLEAR     54  52  91 CALM      30.13R
PONTIAC        CLEAR     53  51  93 CALM      30.15R
PORT HOPE        N/A     65  55  70 NE6       30.14R
PORT HURON     CLEAR     55  52  88 NW5       30.15R
TRI CITIES     CLEAR     56  55  97 W6        30.18R
YPSILANTI      CLEAR     53  51  93 CALM      30.16R
$$
MIZ043>046-050>051-056>058-064>065-071>073-077>080-251000-
SOUTHWEST LOWER MICHIGAN

CITY           SKY/WX    TMP DP  RH WIND       PRES   REMARKS
BATTLE CREEK   CLEAR     55  54  96 CALM      30.18R
BENTON HARBOR  CLEAR     57  54  89 CALM      30.16R
BIG RAPIDS     CLEAR     54  52  92 W3        30.17S
COLDWATER      CLEAR     55  55 100 CALM      30.17S
HOLLAND        CLEAR     56  54  93 SE3       30.16R
GRAND RAPIDS   CLEAR     59  55  87 CALM      30.17R
KALAMAZOO      CLEAR     57  53  86 CALM      30.18R
MARSHALL       FOG       54  53  97 CALM      30.17R VSB 3/4
MOUNT PLEASANT FOG       54  51  91 CALM      30.17R VSB 3/4
MUSKEGON       CLEAR     58  55  90 E6        30.16R
STURGIS        CLEAR     56  56 100 MISG      30.16S
$$
MIZ016>042-251000-
NORTHERN LOWER MICHIGAN

CITY           SKY/WX    TMP DP  RH WIND       PRES   REMARKS
ALPENA         CLEAR     51  50  96 W3        30.17R
BEAVER ISLAND  CLEAR     48  48 100 CALM      30.17R
BELLAIRE       CLEAR     47  45  95 CALM      30.18R
CADILLAC       CLEAR     49  46  90 CALM      30.17S
CHARLEVOIX     CLEAR     53  51  91 SE5       30.19R
GAYLORD        CLEAR     50  44  80 CALM      30.18R
HOUGHTON LAKE  CLEAR     48  47  96 CALM      30.19R
MANISTEE       CLEAR     51  51 100 E6        30.15S
OSCODA         CLEAR     51  48  89 W3        30.15R
PELLSTON       CLEAR     46  45  96 CALM      30.17R
TRAVERSE CITY  CLEAR     50  48  93 CALM      30.15R
LUDINGTON      CLEAR     51  51 100 E3        30.15S
$$
MIZ007>008-015-251000-
EASTERN UPPER MICHIGAN

CITY           SKY/WX    TMP DP  RH WIND       PRES   REMARKS
KINROSS        CLEAR     50  50 100 W6        30.16R
MACKINAC ISLAN CLEAR     54  54 100 CALM      30.16R
NEWBERRY       CLEAR     44  43  97 SW3       30.16R
S. S. MARIE    CLEAR     53  51  93 CALM      30.15R
$$
MIZ004>006-011>014-085-251000-
CENTRAL UPPER MICHIGAN

CITY           SKY/WX    TMP DP  RH WIND       PRES   REMARKS
MANISTIQUE     CLEAR     48  45  89 CALM      30.15R
ESCANABA       PTCLDY    53  52  96 W5        30.15R
MENOMINEE      CLOUDY    54  53  97 CALM      30.16R
SAWYER-GWINN   CLEAR     53  51  95 SW3       30.16S
$$
MIZ001>003-009>011-084-251000-
WESTERN UPPER MICHIGAN

CITY           SKY/WX    TMP DP  RH WIND       PRES   REMARKS
IRON MOUNTAIN  CLEAR     54  51  90 CALM      30.15R
HOUGHTON       CLOUDY    55  52  89 W3        30.10R
COPPER HARBOR    N/A     61  54  77 SW9       30.08R
IRONWOOD       PTCLDY    60  56  86 S6        30.10F
$$

ABBREVIATIONS USED IN REMARKS
   TC - TEMPERATURE IN CELSIUS
  WCI - WIND CHILL INDEX
   HX - HEAT INDEX
  VSB - VISIBILITY





USA.gov is the U.S. government's official web portal to all federal, state and local government web resources and services.